CAPE
144 293 375 677 772 724 700 723 1067 1302 1445 1474 1321 1445 1361 1240 263 0 0 0 0 0 0 0 0 0 0 0 0 0 0 0 0
74 183 212 595 805 763 819 848 1083 1298 1529 1637 1185 950 885 302 0 0 0 0 0 0 0 0 0 0 0 0 0 0 0 0 0
13 102 162 423 764 670 903 958 1071 1327 1538 1617 1205 658 492 65 0 0 0 1 5 0 0 0 0 0 0 0 0 0 0 0 0
7 45 110 257 507 535 707 989 1260 1263 1486 1548 1219 711 397 52 0 0 0 6 7 3 0 0 0 0 0 0 0 0 0 0 0
4 26 85 182 333 445 481 700 1030 1117 1371 1299 1103 804 523 173 0 0 0 0 0 0 0 0 0 0 0 0 0 0 0 0 0
0 5 42 130 247 376 442 631 884 1024 1355 1257 1075 804 654 266 1 43 44 18 1 0 0 0 0 0 0 0 0 0 0 0 0
3 0 0 15 166 323 410 471 864 1111 1355 1455 1238 951 816 498 36 37 233 189 48 5 4 0 0 0 0 0 0 0 0 0 1
0 7 0 0 20 128 275 384 717 1063 1355 1560 1389 1151 988 769 154 28 345 319 64 4 0 6 0 0 0 0 0 0 0 8 58
0 0 0 0 1 34 114 254 536 834 1235 1529 1426 1194 1210 665 250 20 326 152 0 0 0 2 5 6 0 0 0 2 6 33 38
0 0 6 2 7 33 107 201 468 720 1083 1446 1403 1335 906 834 516 67 163 35 15 4 1 5 3 22 28 0 0 0 3 22 9
0 4 55 179 174 194 289 459 624 769 1064 1321 1295 1161 847 590 463 241 208 56 113 76 90 45 48 28 51 53 26 8 22 31 32
55 25 10 27 76 22 145 504 890 997 1018 1141 1148 868 554 550 368 357 193 221 140 185 187 177 207 150 139 163 35 30 69 26 29
1 0 2 2 6 48 163 279 938 1122 1000 974 1040 918 718 634 266 307 197 302 194 309 276 236 300 298 191 84 108 131 9 0 0
26 86 159 151 131 86 161 395 529 892 936 1058 972 744 694 682 352 283 240 188 57 4 87 254 428 422 367 244 117 14 29 0 0
5 1 0 0 237 700 589 610 619 723 963 749 597 569 545 342 158 128 49 48 29 1 0 21 83 229 183 98 7 17 4 0 0
10 0 0 0 0 111 538 928 805 788 734 549 529 471 302 27 1 0 0 0 9 21 0 0 103 67 55 31 3 0 0 0 0
79 28 5 153 261 262 583 832 766 633 496 376 387 184 111 20 10 11 0 0 2 98 129 155 44 42 76 3 0 0 0 0 0
9 224 237 520 596 693 706 524 369 165 86 148 124 55 4 0 0 0 27 11 45 118 16 12 59 49 0 0 0 0 0 0 0
597 626 598 669 526 620 377 196 16 14 1 6 1 0 0 0 0 1 1 0 0 0 0 0 0 0 0 0 0 0 0 0 0
301 444 439 593 592 441 65 1 0 0 0 0 0 0 15 0 0 0 0 25 14 0 0 0 0 0 0 0 0 0 0 0 0
CIN
-283 -278 -298 -264 -262 -252 -240 -224 -200 -167 -171 -157 -162 -135 -140 -147 -271 -0 -0 -0 -0 -0 -0 -0 -0 -0 -0 -0 -0 -0 -0 -0 -0
-306 -285 -328 -316 -285 -277 -247 -222 -216 -213 -196 -171 -195 -197 -196 -265 -0 -0 -0 -0 -0 -0 -0 -0 -0 -0 -0 -0 -0 -0 -0 -0 -0
-268 -291 -362 -353 -298 -295 -266 -241 -247 -220 -207 -204 -231 -249 -248 -330 -0 -0 -0 -111 -384 -0 -0 -0 -0 -0 -0 -0 -0 -0 -0 -0 -0
-183 -277 -340 -338 -324 -289 -287 -277 -268 -250 -231 -222 -242 -264 -304 -384 -0 -0 -0 -366 -374 -318 -0 -0 -0 -0 -0 -0 -0 -0 -0 -0 -0
-252 -255 -314 -318 -317 -315 -344 -356 -315 -286 -274 -273 -283 -299 -319 -343 -3 -0 -0 -0 -0 -0 -0 -0 -0 -0 -14 -0 -0 -0 -0 -0 -0
-0 -205 -304 -352 -336 -341 -333 -390 -387 -322 -292 -305 -330 -329 -307 -336 -10 -311 -319 -305 -67 -0 -0 -0 -0 -0 -0 -0 -0 -0 -0 -0 -0
-103 -0 -0 -338 -355 -332 -326 -374 -402 -364 -303 -309 -335 -342 -288 -288 -354 -335 -237 -232 -267 -314 -338 -0 -0 -0 -0 -0 -0 -0 -0 -0 -2
-0 -267 -0 -0 -299 -280 -335 -355 -415 -400 -311 -303 -341 -325 -269 -258 -350 -378 -220 -205 -276 -253 -0 -303 -0 -0 -0 -0 -0 -0 -0 -33 -34
-0 -0 -0 -0 -154 -278 -295 -316 -335 -352 -360 -343 -341 -306 -259 -314 -332 -412 -225 -209 -4 -0 -0 -288 -280 -266 -2 -0 -0 -18 -48 -38 -40
-0 -0 -204 -71 -174 -227 -276 -311 -345 -363 -346 -353 -361 -340 -299 -237 -183 -292 -250 -264 -214 -228 -115 -260 -277 -233 -163 -0 -0 -0 -18 -38 -50
-0 -177 -170 -167 -177 -205 -220 -278 -338 -356 -364 -323 -344 -325 -283 -245 -205 -221 -235 -245 -158 -164 -210 -211 -218 -209 -124 -97 -89 -41 -64 -49 -53
-156 -178 -213 -211 -218 -192 -243 -242 -245 -290 -357 -362 -336 -327 -306 -198 -168 -206 -217 -165 -114 -124 -175 -140 -132 -127 -92 -74 -71 -128 -58 -90 -71
-246 -0 -282 -145 -237 -261 -274 -259 -256 -274 -339 -356 -318 -328 -282 -230 -229 -185 -191 -125 -101 -117 -155 -59 -107 -87 -85 -96 -70 -87 -96 -0 -0
-278 -266 -202 -219 -161 -151 -170 -235 -235 -231 -335 -274 -307 -314 -278 -207 -235 -250 -238 -182 -315 -283 -153 -60 -94 -45 -43 -50 -107 -97 -102 -0 -0
-131 -113 -0 -0 -207 -133 -201 -239 -232 -242 -291 -390 -363 -299 -240 -263 -290 -233 -238 -207 -255 -79 -26 -18 -32 -38 -57 -120 -142 -151 -52 -0 -0
-363 -0 -0 -0 -0 -249 -245 -286 -261 -190 -331 -394 -344 -279 -259 -318 -88 -0 -0 -0 -127 -79 -10 -0 -63 -61 -95 -114 -155 -0 -0 -0 -0
-237 -285 -36 -288 -304 -235 -269 -347 -391 -377 -381 -372 -278 -267 -271 -273 -197 -174 -0 -0 -21 -169 -133 -88 -59 -73 -71 -17 -0 -0 -0 -0 -0
-221 -167 -177 -229 -242 -294 -366 -423 -381 -421 -400 -313 -245 -164 -89 -0 -0 -0 -114 -96 -95 -168 -172 -70 -78 -65 -0 -0 -0 -0 -0 -0 -0
-188 -173 -224 -217 -378 -328 -344 -364 -335 -428 -55 -197 -79 -0 -0 -0 -0 -23 -100 -0 -0 -0 -0 -0 -0 -0 -0 -0 -0 -0 -0 -0 -0
-275 -243 -273 -206 -144 -222 -277 -11 -0 -0 -0 -0 -0 -0 -205 -0 -10 -0 -0 -230 -209 -0 -0 -0 -0 -0 -0 -0 -0 -0 -0 -0 -0
Wind_Speed
21 21 23 23 19 15 15 15 16 16 16 17 12 11 11 7 4 4 6 7 8 9 11 13 12 12 13 13 14 16 17 15 13
22 23 21 22 22 22 20 18 19 19 19 18 17 16 13 9 5 4 4 5 7 8 10 11 12 12 12 13 15 15 16 16 16
23 20 18 17 22 23 24 25 23 20 19 19 17 16 13 10 7 2 1 2 3 6 8 10 11 12 11 14 15 15 15 15 15
20 20 18 19 23 23 26 26 22 19 17 16 15 15 12 10 7 4 2 2 3 4 7 10 11 12 13 13 14 15 15 15 15
17 16 16 16 21 23 24 25 22 22 20 17 16 14 13 12 9 7 4 4 4 5 6 9 10 12 12 12 14 15 15 15 16
15 18 14 15 18 23 24 22 20 21 19 21 17 15 15 13 12 9 8 6 5 4 6 7 8 11 11 13 14 13 13 14 15
14 19 19 15 14 19 23 19 16 16 19 18 17 17 17 16 15 12 10 8 6 6 6 6 7 9 10 11 11 13 14 14 14
10 17 16 13 13 14 17 14 11 12 15 16 18 19 19 19 15 13 11 9 7 8 7 6 7 8 9 10 11 12 13 17 19
12 13 18 14 12 9 10 11 11 12 14 14 15 20 23 16 16 13 13 10 9 8 8 7 8 8 9 11 9 8 7 13 18
16 14 11 10 9 8 7 9 10 12 13 12 15 18 16 21 18 17 14 11 11 9 8 8 9 10 10 9 8 11 14 20 14
14 11 8 6 5 5 6 8 8 9 9 12 16 16 15 19 17 16 11 10 10 9 11 11 11 12 12 13 16 19 20 21 17
11 8 4 3 3 7 10 10 10 9 8 9 13 14 13 11 18 12 10 10 9 11 15 16 15 15 14 16 14 18 20 21 17
8 6 6 5 10 15 15 14 15 11 11 11 12 13 13 13 13 10 10 9 9 13 18 20 21 19 19 19 16 16 21 17 18
11 13 11 16 17 18 18 17 18 12 11 9 10 10 9 10 12 13 12 12 14 18 23 24 17 20 24 24 17 21 20 17 18
12 17 22 23 26 25 24 19 19 17 15 12 10 8 8 9 10 10 10 11 12 14 19 43 18 19 25 15 16 20 20 16 16
21 27 28 29 28 34 26 21 18 17 16 13 9 6 8 9 10 10 11 13 15 14 18 12 16 20 16 12 17 18 17 14 17
29 29 30 31 34 33 28 20 18 15 13 11 9 6 9 10 14 12 15 18 15 16 12 12 15 14 11 18 16 15 14 14 19
39 35 34 33 28 29 24 18 14 10 6 4 7 11 9 11 13 16 15 13 20 16 15 16 15 14 13 14 13 11 12 15 18
26 27 20 21 19 22 17 11 8 8 8 8 6 5 7 13 15 19 19 11 13 17 18 17 14 12 12 14 13 14 18 18 19
23 22 21 19 14 9 7 7 8 5 5 6 2 8 16 17 12 16 13 10 13 15 18 18 16 15 14 16 17 19 21 24 23
Wind_Direction
182 181 182 185 188 192 190 183 180 183 184 184 186 180 171 154 108 61 52 59 47 43 39 38 40 32 26 20 13 6 6 10 12
186 185 185 186 183 184 186 188 187 186 186 187 186 183 178 170 148 104 60 68 53 45 34 30 29 25 23 15 5 5 4 5 5
187 185 184 185 186 188 190 192 192 192 193 193 191 191 192 191 185 184 75 54 36 27 23 19 17 16 15 8 3 360 359 359 359
180 177 177 179 184 186 189 191 193 198 201 203 202 204 210 211 216 219 231 339 5 11 10 4 4 4 2 1 0 358 357 355 354
174 175 173 180 183 186 188 193 194 197 201 207 215 219 220 218 222 225 241 290 318 342 352 356 359 2 2 0 358 357 357 356 355
175 181 185 188 188 190 193 195 198 202 203 206 209 216 219 224 224 234 247 263 286 307 333 347 356 0 1 359 359 360 358 357 353
183 182 184 182 184 191 197 203 210 210 212 214 215 217 218 218 219 231 240 239 253 281 303 327 342 352 357 358 358 355 353 351 351
187 180 181 186 193 198 201 209 229 232 227 221 223 224 222 219 228 231 233 236 256 276 285 296 323 339 346 347 348 350 349 346 341
197 186 183 188 195 211 214 223 230 225 230 223 225 228 224 230 234 241 237 242 261 273 276 285 307 318 332 339 343 347 357 351 343
201 193 193 193 202 209 230 256 264 240 232 232 229 226 235 217 220 223 226 246 264 276 280 288 294 308 320 326 333 342 340 338 338
198 202 215 226 232 259 270 297 291 275 252 242 246 246 239 241 249 215 246 246 250 269 294 289 292 301 312 322 328 332 335 334 333
203 207 225 263 314 331 337 329 320 307 284 257 249 257 247 239 218 227 238 243 258 279 296 300 299 309 312 321 329 338 334 334 332
255 276 283 294 316 326 332 335 327 324 307 282 252 248 243 228 228 244 256 251 269 297 295 297 296 306 319 321 321 332 333 334 330
293 298 296 302 311 318 325 330 330 328 320 284 264 267 250 239 273 278 280 286 306 328 318 299 293 308 314 314 322 329 334 335 332
316 309 306 311 311 313 313 322 320 320 319 321 309 283 264 266 277 280 273 282 302 319 339 291 300 320 316 321 327 331 335 337 335
314 312 304 307 312 306 317 305 304 307 318 327 323 296 281 295 295 299 310 314 308 317 306 290 317 317 321 322 331 337 341 342 342
311 310 307 311 311 311 313 311 303 308 319 333 342 336 308 304 302 300 301 322 315 324 330 324 321 324 325 327 334 339 344 343 341
295 304 310 313 317 316 315 320 315 320 324 1 2 327 346 338 322 314 322 342 317 323 330 325 330 331 331 331 334 341 345 343 340
316 320 325 330 331 323 323 326 333 339 328 14 12 352 1 340 321 302 311 312 321 334 331 333 338 346 345 345 352 350 344 342 339
325 326 325 326 337 350 357 352 344 356 348 352 337 311 314 316 310 308 311 313 320 323 330 338 345 347 348 344 345 347 346 342 344